Miscellaneous Local Product
Issued by NWS North Platte, NE

Home | Current Version | Previous Version | Text Only | Print | Product List | Glossary On
Versions: 1 2 3 4 5 6 7 8 9 10 11 12 13 14 15 16 17 18 19 20 21 22 23 24 25 26 27 28 29 30 31 32 33 34 35 36 37 38 39 40 41 42 43 44 45 46 47 48 49 50
000
AXUS43 KLBF 301010
MISLBF


WESTERN AND NORTH CENTRAL NEBRASKA HOURLY WEATHER ROUNDUP
NATIONAL WEATHER SERVICE NORTH PLATTE NE
500 AM CDT THU JUL 30 2015

***STATIONS NOT REPORTING VARIABLES SUCH AS SKY/WEATHER OR
PRESSURE ARE PROVIDED BY THE NEBRASKA DEPARTMENT OF
ROADS...RAWS...AND APRS NETWORKS...AND ARE NOT UNDER
NATIONAL WEATHER SERVICE QUALITY CONTROL***

...OBSERVATIONS IN AND NEAR THE EASTERN PANHANDLE OF NEBRASKA...

CITY           SKY/WX    TMP DP  RH WIND       PRES   REMARKS
PINE RIDGE     CLEAR     53  47  79 NW3       30.21S
CHADRON        CLEAR     52  48  86 SW7       30.22R
ALLIANCE       CLEAR     54  49  83 S8        30.25S
SIDNEY         CLEAR     60  53  77 SW8       30.28S
BIG SPRINGS      N/A     60  53  77 W3          N/A
$$

...OBSERVATIONS IN NORTH CENTRAL NEBRASKA...

CITY           SKY/WX    TMP DP  RH WIND       PRES   REMARKS
VALENTINE      CLEAR     56  50  80 SW10      30.20S
THEDFORD       CLEAR     63  54  70 SW9       30.23S
AINSWORTH      CLEAR     59  54  83 CALM      30.21S
O`NEILL        CLEAR     60  53  78 SW5       30.19S
ORD            CLEAR     56  53  90 CALM      30.21S
BROKEN BOW     CLEAR     57  52  83 CALM      30.23S
SPRINGVIEW       N/A     56  52  87 CALM        N/A
CHAMBERS         N/A     63  52  67 S3          N/A
EWING            N/A     58  54  86 CALM        N/A
$$

...OBSERVATIONS IN SOUTHWEST NEBRASKA AND FAR NORTHEAST COLORADO...

CITY           SKY/WX    TMP DP  RH WIND       PRES   REMARKS
WRAY           FAIR      59  55  85 SW3       30.28S
HOLYOKE        FAIR      55  50  82 S3        30.28S
IMPERIAL       CLEAR     56  51  84 S5        30.27S
OGALLALA       CLEAR     59  52  76 SW5       30.26S
NORTH PLATTE   CLEAR     56  52  86 CALM      30.24F
MCCOOK         CLEAR     58  53  84 CALM      30.25S
LEXINGTON      CLEAR     56  53  90 CALM      30.25F
PAXTON           N/A     60  55  84 CALM        N/A
BRADY            N/A     57  53  85 CALM        N/A
CALLAWAY         N/A     58  55  91 S6          N/A
$$

...NORTH PLATTE AREA...

CITY           SKY/WX    TMP DP  RH WIND       PRES   REMARKS
AIRPORT        CLEAR     56  52  86 CALM      30.24F
DOWNTOWN         N/A     60  54  80 CALM        N/A
SANDRIDGE        N/A     59  53  82 CALM        N/A
HILLCREST        N/A     60  54  81 SE3         N/A
$$

...SOME WEATHER OBSERVATIONS FROM AROUND THE REGION...

CITY           SKY/WX    TMP DP  RH WIND       PRES   REMARKS
DENVER         PTCLDY    65  50  58 SW5       30.30R
LARAMIE        CLEAR     43  34  70 SE8       30.45R
CHEYENNE       CLEAR     54  47  77 W5        30.35F
SCOTTSBLUFF    CLEAR     58  50  75 E8        30.25S
RAPID CITY     CLEAR     57  46  66 NW10      30.23R
PIERRE         CLEAR     57  47  69 NW5       30.13R
WINNER         FAIR      69  50  50 SW9       30.15S
SIOUX FALLS    PTCLDY    58  54  86 CALM      30.12F
OMAHA          CLEAR     64  60  87 SE7       30.18R
GRAND ISLAND   CLEAR     59  52  77 SW5       30.22S
KANSAS CITY    CLEAR     64  63  96 S3        30.18S
WICHITA        CLOUDY    75  66  73 E13       30.12F
HAYS           CLOUDY    68  55  64 NE8       30.21F
LIBERAL        PTCLDY    70  64  83 NE5       30.22F
GOODLAND       CLEAR     60  56  86 S6        30.28S
$$



USA.gov is the U.S. government's official web portal to all federal, state and local government web resources and services.